Flag for Italy Weather past 2 weeks in Sassari, Italy

39 °F

Passing clouds.

Feels Like: 39 °F
Forecast: 49 / 59 °F
Wind: 1 mph from North

Location: Alghero Airport

Current Time: Nov 27, 2015 at 1:14:07 AM

Latest Report: Nov 27, 2015 at 12:20 AM

Visibility: N/A

Pressure: 29.68 "Hg

Humidity: 93%

Dew point: 37 °F

Location of SassariLocation

Historic Weather in Sassari — Graph


Sassari temperature yesterday

Maximum temperature yesterday: 55 °F (at 12:20 AM)
Minimum temperature yesterday: 41 °F (at 11:50 PM)
Average temperature yesterday: 49 °F

Past Weeks' High & Low Weather Summary

High70 °F (Nov 20, 1:20 PM)100% (Nov 11, 11:20 PM)30.39 "Hg (Nov 11, 11:20 PM)
Low39 °F (Nov 25, 5:50 AM)41% (Nov 21, 9:50 PM)29.47 "Hg (Nov 26, 4:50 AM)
Average58 °F78%30.05 "Hg
* Reported Nov 11 11:20 PM — Nov 26 11:50 PM, Sassari, Weather by CustomWeather, © 2015

Note: Actual official high and low records may vary slightly from our data, if they occured in-between our weather recording intervals... More about our weather records


Sassari weather history for previous 24 hours

Time TempWeatherWind HumidityBarometerVisibility
11:50 PM
Thu, Nov 26
41 °FPassing clouds.1 mph87%29.68 "HgN/A
10:50 PM45 °FPassing clouds.2 mph81%29.68 "HgN/A
10:20 PM45 °FLight rain. Passing clouds.5 mph87%29.68 "HgN/A
9:50 PM45 °FLight rain. Passing clouds.3 mph81%29.68 "HgN/A
9:20 PM45 °FLight rain. Passing clouds.9 mph81%29.68 "HgN/A
8:50 PM46 °FPassing clouds.6 mph71%29.68 "HgN/A
8:20 PM45 °FPassing clouds.5 mph76%29.68 "HgN/A
7:50 PM45 °FPassing clouds.3 mph81%29.65 "HgN/A
7:20 PM46 °FThunderstorms. Passing clouds.No wind76%29.65 "HgN/A
6:50 PM48 °FThunderstorms. Passing clouds.5 mph71%29.65 "HgN/A
6:20 PM48 °FPassing clouds.9 mph66%29.62 "HgN/A
5:50 PM54 °FThunderstorms. Passing clouds.15 mph47%29.59 "HgN/A
5:20 PM50 °FThunderstorms. Passing clouds.12 mph67%29.59 "HgN/A
4:50 PM54 °FScattered clouds.10 mph51%29.56 "HgN/A
4:20 PM54 °FThunderstorms. Partly sunny.13 mph51%29.56 "HgN/A
3:50 PM54 °FThunderstorms. Scattered clouds.10 mph58%29.56 "HgN/A
3:20 PM52 °FScattered clouds.No wind67%29.56 "HgN/A
2:50 PM52 °FScattered clouds.3 mph72%29.56 "HgN/A
2:20 PM50 °FScattered clouds.6 mph76%29.56 "HgN/A
1:50 PM50 °FPartly sunny.3 mph71%29.56 "HgN/A
1:20 PM48 °FPartly sunny.9 mph76%29.56 "HgN/A
12:50 PM50 °FThundershowers. Partly sunny.6 mph76%29.56 "HgN/A
12:20 PM50 °FPartly sunny.2 mph76%29.56 "HgN/A
11:50 AM48 °FPartly sunny.No wind82%29.56 "HgN/A
11:20 AM46 °FScattered clouds.No wind93%29.56 "HgN/A
10:50 AM45 °FLight rain. Partly sunny.3 mph93%29.56 "HgN/A
10:20 AM45 °FThundershowers. Partly sunny.3 mph87%29.56 "HgN/A
9:50 AM46 °FThundershowers. Partly sunny.8 mph82%29.53 "Hg6 mi
9:20 AM54 °FThunderstorms. Scattered clouds.9 mph67%29.50 "HgN/A
8:50 AM50 °FScattered clouds.12 mph71%29.50 "HgN/A
8:20 AM46 °FPassing clouds.13 mph82%29.50 "HgN/A
7:50 AM46 °FThundershowers. Passing clouds.13 mph82%29.50 "HgN/A
7:20 AM46 °FRain. Passing clouds.18 mph82%29.50 "Hg5 mi
6:50 AM46 °FRain. Passing clouds.20 mph82%29.50 "HgN/A
6:20 AM48 °FThunderstorms. Passing clouds.15 mph76%29.50 "Hg6 mi
5:50 AM48 °FThunderstorms. Passing clouds.15 mph82%29.50 "Hg6 mi
5:20 AM46 °FThunderstorms. Passing clouds.16 mph87%29.50 "HgN/A
4:50 AM50 °FPassing clouds.13 mph76%29.47 "HgN/A
3:50 AM50 °FLight rain. Passing clouds.13 mph71%29.50 "HgN/A
3:20 AM52 °FLight rain. Passing clouds.15 mph72%29.50 "HgN/A
2:20 AM55 °FLight rain. Passing clouds.15 mph59%29.50 "HgN/A
1:50 AM55 °FLight rain. Passing clouds.14 mph63%29.53 "HgN/A
1:20 AM55 °FLight rain. Passing clouds.13 mph59%29.56 "HgN/A
Weather by CustomWeather, © 2015

See weather overviewHow to use our weather pages